Location: Czernik�w
(52.0438°N, 19.4172°E)
Time: 17:08:21
(UTC+00:00)

Daily predictions for brighter satellites

Satellite Brightness Start Highest point End
(mag) Time Altitude Azimuth Time Altitude Azimuth Time Altitude Azimuth
MOS 1 4.4 17:43:17 10° SSE 17:48:51 63° ENE 17:54:28 10° NNW
CZ-2C R/B 3.0 17:44:30 10° SSE 17:49:19 59° ENE 17:54:02 10° N
STARLINK-1237 3.6 17:46:34 10° WSW 17:50:43 82° SSE 17:54:52 10° ENE
CZ-2C R/B 3.9 17:49:02 10° NE 17:52:32 18° E 17:56:01 10° SE
Cosmos 1656 Rocket 4.3 17:47:21 10° NNW 17:52:46 42° NE 17:58:06 10° ESE
Cosmos 2333 Rocket 4.5 17:48:24 10° W 17:53:06 26° NW 17:57:48 10° NNE
Meteor 1-21 Rocket 4.3 17:47:47 10° N 17:53:17 57° ENE 17:58:44 10° SSE
Cosmos 1758 3.5 17:51:15 10° S 17:55:15 56° E 17:59:17 10° NNE
STARLINK-1202 3.6 17:51:32 10° WSW 17:55:40 85° SSE 17:59:51 10° ENE
Cosmos 1992 Rocket 4.0 17:50:41 10° NNW 17:55:55 70° ENE 18:01:07 10° SSE
STARLINK-1203 3.6 17:52:58 10° WSW 17:57:06 88° S 18:01:16 10° ENE
Cosmos 2084 Rocket 4.2 17:53:14 10° NW 17:57:37 54° SW 18:01:59 10° SSE
STARLINK-1233 3.0 17:55:39 10° W 17:58:47 77° N 18:01:57 10° E
STARLINK-1212 3.0 17:56:06 10° W 17:59:14 76° N 18:02:23 10° E
COSMOS 2455 4.0 17:53:58 10° NNW 17:59:19 31° NNE 18:04:38 10° E
STARLINK-1105 3.0 17:56:33 10° W 17:59:41 76° N 18:02:51 10° E
Cosmos 2228 4.4 17:56:38 10° SE 17:59:42 20° E 18:02:49 10° NE
STARLINK-1206 3.0 17:57:02 10° W 18:00:09 76° N 18:03:17 10° E
STARLINK-1247 3.0 17:57:29 10° W 18:00:36 76° N 18:03:44 10° E
STARLINK-1227 3.0 17:57:53 10° W 18:01:02 76° N 18:04:11 10° E
STARLINK-1218 3.0 17:58:23 10° W 18:01:31 76° N 18:04:39 10° E
CZ-4 R/B 4.2 17:58:46 10° SW 18:01:45 21° W 18:04:46 10° NW
STARLINK-1226 3.0 17:58:49 10° W 18:01:57 76° N 18:05:05 10° E
ARGOS 3.2 17:56:35 10° SSE 18:01:57 73° ENE 18:07:20 10° NNW
STARLINK-1254 3.0 17:59:15 10° W 18:02:23 76° N 18:05:33 10° E
STARLINK-1215 3.0 17:59:44 10° W 18:02:52 75° N 18:06:00 10° E
STARLINK-1231 3.0 18:00:12 10° W 18:03:19 75° N 18:06:27 10° E
STARLINK-1232 3.0 18:01:06 10° W 18:04:13 75° N 18:07:21 10° E
STARLINK-1217 3.0 18:01:33 10° W 18:04:40 75° N 18:07:48 10° E
STARLINK-1208 3.0 18:01:57 10° W 18:05:06 75° N 18:08:16 10° E
STARLINK-1229 3.0 18:02:26 10° W 18:05:33 75° N 18:08:41 10° E
Cosmos 1603 4.3 18:00:32 10° S 18:05:33 35° ESE 18:10:35 10° NE
STARLINK-1246 3.6 18:01:27 10° WSW 18:05:37 89° SSE 18:09:46 10° ENE
STARLINK-1271 3.0 18:02:53 10° W 18:06:01 75° N 18:09:09 10° E
STARLINK-1270 3.0 18:03:21 10° W 18:06:28 74° N 18:09:36 10° E
STARLINK-1154 3.0 18:03:47 10° W 18:06:55 74° N 18:10:03 10° E
STARLINK-1197 3.0 18:04:41 10° W 18:07:49 74° N 18:10:56 10° E
Meteor 2-15 4.4 18:02:01 10° S 18:08:02 75° E 18:14:06 10° NNE
STARLINK-1189 3.0 18:05:10 10° W 18:08:17 74° N 18:11:24 10° E
STARLINK-1198 3.0 18:05:36 10° W 18:08:43 74° N 18:11:51 10° E
STARLINK-1188 3.0 18:06:03 10° W 18:09:11 74° N 18:12:18 10° E
Cosmos 2237 Rocket 3.8 18:04:34 10° WSW 18:09:50 39° NW 18:15:09 10° NNE
STARLINK-1235 3.0 18:06:42 10° W 18:09:51 72° N 18:13:01 10° E
STARLINK-1187 3.0 18:06:59 10° W 18:10:09 73° N 18:13:19 10° E
STARLINK-1224 3.6 18:06:29 10° WSW 18:10:38 89° NNW 18:14:48 10° ENE
STARLINK-1199 3.0 18:08:00 10° W 18:11:08 74° N 18:14:17 10° E
Cosmos 2184 Rocket 4.2 18:05:02 10° N 18:11:17 57° ENE 18:17:25 10° SSE
STARLINK-1201 3.1 18:08:11 10° W 18:11:27 75° N 18:14:44 10° E
STARLINK-1191 3.0 18:08:27 10° W 18:11:35 73° N 18:14:45 10° E
H-2A R/B 2.2 18:06:24 10° SSE 18:11:39 84° WSW 18:16:48 10° NNW
STARLINK-1210 3.0 18:08:54 10° W 18:12:02 73° N 18:15:11 10° E
STARLINK-1221 3.0 18:09:20 10° W 18:12:29 73° N 18:15:38 10° E
STARLINK-1219 3.0 18:09:47 10° W 18:12:56 73° N 18:16:03 10° E
STARLINK-1222 3.0 18:10:15 10° W 18:13:23 73° N 18:16:30 10° E
STARLINK-1211 3.0 18:10:42 10° W 18:13:50 73° N 18:16:55 11° E
Cosmos 1726 2.8 18:10:47 10° SSE 18:14:11 34° E 18:17:35 10° NNE
STARLINK-1214 3.0 18:11:10 10° W 18:14:18 73° N 18:17:22 11° E
STARLINK-1245 3.0 18:11:38 10° W 18:14:45 73° N 18:17:46 11° E
STARLINK-1234 3.0 18:11:54 10° W 18:14:56 71° N 18:17:46 11° E
STARLINK-1238 3.0 18:12:03 10° W 18:15:12 73° N 18:18:14 11° E
STARLINK-1228 2.8 18:12:38 10° W 18:15:32 70° N 18:18:10 12° E
STARLINK-1225 3.6 18:11:26 10° WSW 18:15:35 87° NNW 18:19:45 10° ENE
STARLINK-1205 3.0 18:13:00 10° W 18:16:07 73° N 18:19:05 11° E
USA 186 2.0 18:13:09 10° S 18:16:32 75° WSW 18:19:48 10° NNW
STARLINK-1204 3.0 18:13:26 10° W 18:16:35 72° N 18:19:30 11° E
Resurs 1-3 3.9 18:14:42 10° SE 18:18:55 48° ENE 18:23:09 10° N
STARLINK-1230 3.7 18:16:25 10° W 18:20:35 85° NNW 18:24:45 10° ENE
Meteor 2-10 4.3 18:18:05 10° SSE 18:23:19 50° E 18:28:44 10° NNE
ATLAS CENTAUR R/B 3.9 18:22:42 10° NW 18:24:59 14° N 18:27:13 10° NNE
STARLINK-1209 2.9 18:22:35 10° W 18:25:32 70° N 18:27:49 15° E
STARLINK-1243 3.7 18:21:23 10° W 18:25:33 83° N 18:29:35 11° E
Cosmos 292 Rocket 4.3 18:22:30 10° NNW 18:27:15 61° WSW 18:31:59 10° S
Cosmos 1703 3.6 18:24:11 10° N 18:28:01 45° ENE 18:31:28 12° SSE
Cosmos 1461 3.9 18:23:58 10° NNW 18:28:07 38° NE 18:31:32 15° E
Cosmos 2251 Rocket 3.5 18:24:46 10° S 18:30:04 65° ESE 18:35:25 10° NNE
STARLINK-1236 3.7 18:26:26 10° W 18:30:35 82° N 18:34:25 12° E
NOSS 3-4 (A) 3.9 18:24:23 10° NW 18:31:10 69° NE 18:37:29 15° ESE
NOSS 3-4 (C) 3.9 18:24:29 10° NW 18:31:16 69° NE 18:37:34 15° ESE
ERBS 3.7 18:29:24 10° WNW 18:32:31 34° N 18:35:39 10° ENE
Cosmos 1953 2.2 18:28:49 10° S 18:32:46 76° E 18:36:47 10° NNE
Cosmos 2154 Rocket 4.2 18:26:51 10° N 18:33:07 55° ENE 18:39:19 10° SSE
Cosmos 2315 Rocket 4.5 18:30:01 10° SSW 18:36:19 68° WNW 18:42:42 10° N
Resurs 01 Rocket 1.8 18:34:55 13° SE 18:38:41 53° ENE 18:43:00 10° N
Cosmos 2369 Rocket 2.8 18:33:06 10° NW 18:38:42 59° WSW 18:44:13 10° S
FREGAT/IRIS 4.3 18:36:46 10° SSW 18:39:13 30° W 18:41:42 10° NNW
STARLINK-1269 3.7 18:36:21 10° W 18:40:30 79° N 18:43:57 15° E
Aureole 3 4.1 18:36:26 10° SSW 18:41:01 82° WNW 18:47:00 10° N
NOSS 3-3 (A) 4.0 18:36:56 10° SSW 18:42:44 59° SE 18:49:19 10° NE
NOSS 3-3 (C) 4.0 18:37:02 10° SSW 18:42:51 59° SE 18:49:26 10° NE
Nadezhda 1 Rocket 4.2 18:37:34 10° SSE 18:43:43 52° E 18:49:51 10° NNE
Cosmos 2058 Rocket 4.0 18:41:07 16° SE 18:43:55 30° E 18:47:52 10° NNE
Cosmos 1943 Rocket 3.3 18:39:25 10° NW 18:44:36 41° WSW 18:49:47 10° S
Cosmos 1437 2.8 18:41:42 10° NNW 18:44:44 69° WSW 18:47:33 11° S
STARLINK-1200 3.7 18:41:20 10° W 18:45:30 79° N 18:48:43 16° E
CZ-2C R/B 3.7 18:42:09 10° NNE 18:46:56 70° ESE 18:51:35 10° S
Meteor 1-11 4.3 18:41:24 10° N 18:47:10 62° ENE 18:52:03 14° SSE
Cosmos 1300 4.4 18:48:51 16° ENE 18:48:51 16° ENE 18:50:57 10° NE
STARLINK-1192 3.7 18:46:20 10° W 18:50:29 78° N 18:53:30 18° E
STARLINK-1244 3.7 18:51:18 10° W 18:55:28 77° N 18:58:17 20° E
Cosmos 1908 3.3 18:52:23 12° S 18:55:48 51° E 18:59:35 10° NNE
Cosmos 2074 Rocket 4.3 18:54:03 10° NNW 19:00:18 70° W 19:06:32 10° S
STARLINK-1138 3.7 18:56:18 10° W 19:00:28 77° N 19:03:04 22° E
Abrixas rocket 2.5 18:58:10 10° WSW 19:00:59 39° S 19:01:18 37° SSE
Cosmos 2058 4.4 18:58:01 10° NNE 19:01:03 20° ENE 19:01:42 19° ENE
SPOT 5 4.1 19:00:07 19° E 19:01:22 22° ENE 19:04:40 10° N
STARLINK-67 2.2 18:58:57 10° WNW 19:01:33 89° SSE 19:01:57 59° ESE
Cosmos 1726 Rocket 3.5 18:58:15 10° S 19:02:36 64° E 19:07:01 10° NNE
ATLAS 2AS CENTAUR R/B 2.9 18:56:01 10° NW 19:03:47 87° SW 19:08:47 22° SE
USA 234 3.5 18:58:28 10° ENE 19:04:39 42° SE 19:10:47 10° SSW
Cosmos 1825 Rocket 4.1 19:00:56 10° NNW 19:05:17 58° W 19:09:35 10° S
STARLINK-1143 3.7 19:01:14 10° W 19:05:23 77° N 19:07:48 24° E
ISS -1.2 19:04:02 10° WSW 19:05:42 13° SW 19:07:16 10° SSW
Cosmos 1943 3.1 19:00:05 10° SSW 19:05:43 73° ESE 19:11:25 10° NNE
Aureole 1 Rocket 4.3 19:01:16 10° S 19:08:39 52° ESE 19:14:33 10° NE
Spot 2 Rocket 3.6 19:06:11 25° SE 19:09:07 59° ENE 19:14:09 10° N
STARLINK-1241 3.7 19:06:17 10° W 19:10:26 76° N 19:12:38 27° E
Meteor 2-17 Rocket 4.5 19:05:32 10° NNW 19:11:43 87° W 19:17:20 13° S
SPOT 3 Rocket 4.4 19:08:09 10° S 19:13:13 51° W 19:18:20 10° NNW
Cosmos 1140 Rocket 4.1 19:11:31 27° SE 19:13:20 34° ESE 19:17:59 10° NE
STARLINK-1239 3.7 19:11:16 10° W 19:15:25 76° N 19:17:25 30° E
Iridium 4 Rocket 4.1 19:12:52 10° NNE 19:16:36 27° ENE 19:16:55 27° E
MetOp-B 4.1 19:15:54 24° SSE 19:19:16 79° ENE 19:24:39 10° NNW
STARLINK-1240 3.7 19:16:15 10° W 19:20:25 77° N 19:22:12 33° E
MOS 1 Rocket 3.6 19:16:10 10° NNE 19:21:29 90° WSW 19:26:55 10° SSW
Cosmos 1697 Rocket 4.4 19:17:49 10° NNW 19:22:11 22° NE 19:25:14 15° ENE
RESURS DK-1 4.5 19:19:34 10° N 19:22:15 16° NE 19:23:48 14° ENE
Cosmos 1953 Rocket 4.2 19:19:53 10° NNW 19:24:16 55° W 19:27:53 15° S
STARLINK-1216 3.7 19:21:14 10° W 19:25:24 77° N 19:27:00 36° E
CZ-4C R/B 3.9 19:20:10 10° NW 19:25:55 34° NNE 19:32:23 11° ENE
SL-16 R/B 4.2 19:22:40 10° WSW 19:27:37 30° NW 19:32:36 10° NNE
Terra 2.8 19:28:43 28° E 19:29:41 30° ENE 19:33:51 10° N
STARLINK-1237 3.6 19:26:14 10° W 19:30:24 78° N 19:31:47 41° E
Cosmos 1606 Rocket 4.2 19:26:26 10° SSW 19:30:48 58° WNW 19:35:14 10° N
Cosmos 1818 3.4 19:25:39 10° SSW 19:31:04 73° SE 19:36:32 10° NE
Cosmos 921 Rocket 2.8 19:27:28 10° NNW 19:31:42 82° ENE 19:32:50 47° SSE
CZ-2C R/B 2.6 19:28:16 10° NNE 19:33:29 79° WNW 19:38:39 10° SSW
BREEZE M DEB (TANK) 3.9 19:27:44 10° SW 19:34:31 35° SSE 19:34:31 35° SSE
STARLINK-1233 2.8 19:31:32 10° WNW 19:34:36 84° WNW 19:34:36 84° WNW
Cosmos 614 Rocket 3.9 19:29:38 10° SSW 19:34:50 77° ESE 19:40:05 10° NNE
STARLINK-1212 2.8 19:32:00 10° WNW 19:35:01 82° WNW 19:35:01 82° WNW
STARLINK-1202 3.6 19:31:13 10° W 19:35:22 78° N 19:36:33 45° E
STARLINK-1105 2.8 19:32:27 10° WNW 19:35:29 81° WNW 19:35:29 81° WNW
Cosmos 407 Rocket 3.3 19:30:47 10° SSW 19:35:53 67° ESE 19:41:00 10° NNE
STARLINK-1206 2.9 19:32:56 10° WNW 19:35:53 78° WNW 19:35:53 78° WNW
STARLINK-1247 2.9 19:33:22 10° WNW 19:36:19 77° WNW 19:36:19 77° WNW
STARLINK-1203 3.6 19:32:33 10° W 19:36:41 80° N 19:37:45 48° E
Cosmos 2228 3.8 19:32:41 10° SSW 19:36:53 53° WNW 19:41:09 10° N
STARLINK-1227 2.9 19:33:47 10° WNW 19:36:45 78° WNW 19:36:45 78° WNW
STARLINK-1218 2.9 19:34:17 10° WNW 19:37:11 75° WNW 19:37:11 75° WNW
STARLINK-1226 2.9 19:34:42 10° WNW 19:37:37 75° W 19:37:37 75° W
STARLINK-1254 3.0 19:35:09 10° WNW 19:38:04 74° W 19:38:04 74° W
SPOT 1/Viking Rocket 3.5 19:36:24 38° SE 19:38:21 68° ENE 19:43:34 10° N
STARLINK-1215 3.0 19:35:38 10° WNW 19:38:30 72° W 19:38:30 72° W
STARLINK-1231 3.0 19:36:06 10° WNW 19:38:56 71° W 19:38:56 71° W
STARLINK-1232 3.1 19:37:00 10° WNW 19:39:47 69° W 19:39:47 69° W
STARLINK-1217 3.1 19:37:26 10° WNW 19:40:14 68° W 19:40:14 68° W
IGS 5A 3.4 19:39:45 54° SE 19:40:35 74° ENE 19:44:46 10° N
Iridium 2 4.3 19:41:08 42° ENE 19:41:08 42° ENE 19:44:16 10° NNE
STARLINK-1208 3.1 19:37:51 10° WNW 19:40:40 69° W 19:40:40 69° W
STARLINK-1229 3.1 19:38:19 10° WNW 19:41:04 66° W 19:41:04 66° W
SAR-Lupe-2 3.4 19:37:51 10° NNE 19:41:28 89° WNW 19:42:09 57° SSW
STARLINK-1271 3.1 19:38:47 10° WNW 19:41:32 65° W 19:41:32 65° W
STARLINK-1270 3.2 19:39:15 10° WNW 19:41:57 64° W 19:41:57 64° W
STARLINK-1154 3.2 19:39:41 10° WNW 19:42:23 63° W 19:42:23 63° W
STARLINK-1197 3.2 19:40:35 10° WNW 19:43:15 61° W 19:43:15 61° W
STARLINK-1189 3.3 19:41:03 10° WNW 19:43:42 60° W 19:43:42 60° W
STARLINK-1198 3.3 19:41:30 10° WNW 19:44:07 59° W 19:44:07 59° W
Cosmos 2341 Rocket 4.0 19:38:27 10° N 19:44:52 86° W 19:48:37 27° S
STARLINK-1188 3.3 19:41:56 10° WNW 19:44:33 58° W 19:44:33 58° W
STARLINK-1246 3.6 19:41:09 10° W 19:45:19 80° N 19:46:06 57° E
STARLINK-1235 3.4 19:42:35 10° WNW 19:45:11 55° W 19:45:11 55° W
COSMOS 2455 2.8 19:39:54 10° NW 19:45:59 88° SW 19:48:18 40° SE
STARLINK-1187 3.4 19:42:55 10° WNW 19:45:33 57° W 19:45:33 57° W
STARLINK-1199 3.4 19:43:53 10° WNW 19:46:28 57° W 19:46:28 57° W
STARLINK-1191 3.4 19:44:20 10° WNW 19:46:54 55° W 19:46:54 55° W
STARLINK-1201 3.3 19:44:31 10° WNW 19:47:21 63° W 19:47:21 63° W
STARLINK-1210 3.5 19:44:47 10° WNW 19:47:20 55° W 19:47:20 55° W
STARLINK-1221 3.5 19:45:14 10° WNW 19:47:46 54° W 19:47:46 54° W
STARLINK-1219 3.5 19:45:41 10° WNW 19:48:12 53° W 19:48:12 53° W
ERS-1 Rocket 3.0 19:47:59 48° SE 19:49:15 66° ENE 19:54:16 10° N
STARLINK-1222 3.6 19:46:08 10° WNW 19:48:38 52° W 19:48:38 52° W
Cosmos 1980 Rocket 4.0 19:45:14 10° NNW 19:49:24 21° NNE 19:52:06 15° ENE
Cosmos 1340 Rocket 3.0 19:47:47 31° SSW 19:49:38 73° WNW 19:53:42 10° N
STARLINK-1211 3.6 19:46:35 10° WNW 19:49:04 52° W 19:49:04 52° W
STARLINK-1214 3.6 19:47:03 10° WNW 19:49:31 51° W 19:49:31 51° W
STARLINK-1224 3.6 19:46:11 10° W 19:50:21 82° N 19:50:56 64° E
STARLINK-1234 3.9 19:47:29 10° WNW 19:49:39 42° W 19:49:39 42° W
STARLINK-1228 4.1 19:47:38 10° WNW 19:49:30 35° W 19:49:30 35° W
STARLINK-1245 3.7 19:47:31 10° WNW 19:49:55 49° W 19:49:55 49° W
STARLINK-1238 3.7 19:47:56 10° WNW 19:50:23 50° W 19:50:23 50° W
STARLINK-1205 3.7 19:48:53 10° WNW 19:51:14 47° W 19:51:14 47° W
STARLINK-1204 3.8 19:49:19 10° WNW 19:51:39 46° W 19:51:39 46° W
STARLINK-1225 3.5 19:51:08 10° W 19:55:18 83° N 19:55:40 72° ENE
Cosmos 220 Rocket 4.0 19:52:57 10° NNW 19:57:14 61° ENE 19:57:26 60° ENE
Cosmos 1892 3.3 19:53:34 10° N 19:56:50 45° NE 19:56:50 45° NE
Cosmos 1954 Rocket 4.0 19:57:46 52° ESE 19:58:00 53° ESE 20:03:05 10° NNE
STARLINK-1230 3.5 19:56:08 10° W 20:00:18 85° NNE 20:00:28 81° ENE
STARLINK-1243 3.5 20:01:05 10° WNW 20:05:14 86° N 20:05:14 86° N
ATLAS CENTAUR R/B 3.1 20:02:09 10° NNW 20:05:19 21° NNE 20:06:08 20° NE
Cosmos 2218 Rocket 3.9 19:59:25 10° N 20:05:39 87° E 20:07:52 43° SSE
Cosmos 1461 3.6 20:03:02 10° NW 20:07:23 49° SW 20:07:55 46° SSW
Cosmos 1656 4.1 20:02:12 10° NNW 20:07:46 50° NE 20:08:58 43° E
Cosmos 1408 4.1 20:05:23 10° N 20:07:36 28° NNE 20:07:36 28° NNE
ERBS 3.3 20:05:56 10° WNW 20:08:37 45° NNW 20:08:37 45° NNW
STARLINK-1236 3.6 20:06:07 10° WNW 20:10:04 80° WNW 20:10:04 80° WNW
Cosmos 1076 Rocket 3.3 20:06:53 10° N 20:11:09 87° NE 20:11:09 87° NE
Cosmos 1023 Rocket 4.4 20:11:23 26° SSW 20:14:20 82° WNW 20:19:31 10° NNE
Cosmos 2151 3.8 20:11:22 10° N 20:14:38 38° NE 20:14:38 38° NE
Resurs 01 Rocket 3.8 20:12:28 12° SW 20:15:29 21° W 20:18:53 10° NW
ATLAS 5 CENTAUR R/B 3.4 20:20:51 21° NE 20:20:51 21° NE 20:22:36 10° NE
Cosmos 1825 3.8 20:15:00 10° N 20:17:15 27° NNE 20:17:15 27° NNE
In-Cosmos 22 Rocket 4.3 20:12:45 10° NNW 20:18:36 78° W 20:20:12 50° S
USA 32 4.0 20:14:39 10° N 20:19:53 61° E 20:20:05 61° E
STARLINK-1269 3.9 20:16:03 10° WNW 20:19:36 64° W 20:19:36 64° W
Cosmos 2181 Rocket 4.0 20:18:41 35° SSW 20:21:35 84° W 20:27:49 10° N
Cosmos 1300 3.4 20:23:46 50° WNW 20:23:46 50° WNW 20:27:32 10° N
STARLINK-1200 4.1 20:21:01 10° WNW 20:24:22 56° W 20:24:22 56° W
Meteor 2-1 Rocket 4.2 20:25:44 63° SE 20:26:28 70° E 20:32:23 10° NNE
Okean 3 Rocket 4.2 20:22:54 10° N 20:26:29 46° NE 20:26:29 46° NE
Cosmos 1763 Rocket 3.3 20:23:19 10° NNW 20:28:35 75° ENE 20:28:47 73° E
STARLINK-1192 4.3 20:26:00 10° WNW 20:29:09 50° W 20:29:09 50° W
SL-8 Rocket 4.5 20:24:09 10° NNW 20:30:18 57° W 20:32:55 34° SSW
Cosmos-2242 4.4 20:32:35 28° NE 20:32:35 28° NE 20:34:58 10° NNE
STARLINK-1244 4.5 20:30:59 10° WNW 20:33:56 45° W 20:33:56 45° W
Cosmos 1174 4.3 20:32:34 10° NW 20:35:46 61° NW 20:35:46 61° NW
CARTOSAT-1 4.1 20:36:52 54° W 20:36:52 54° W 20:41:01 10° NNW
Cosmos 2058 3.6 20:34:17 10° NNW 20:37:54 49° WNW 20:37:54 49° WNW
SPOT 5 3.1 20:39:20 55° W 20:39:20 55° W 20:43:27 10° NNW
Cosmos 2366 rocket 4.3 20:34:39 10° NNW 20:40:40 59° W 20:42:31 42° SSW
SL-24 R/B - RUBIN 2 4.3 20:34:57 10° SW 20:40:43 83° NW 20:47:13 10° NE
Cosmos 1766 Rocket 4.2 20:41:33 10° N 20:45:05 50° NNE 20:45:05 50° NNE
USA 234 3.2 20:41:30 10° ENE 20:48:04 86° NNW 20:54:38 10° WSW
Cosmos 2369 3.9 20:43:41 10° NNW 20:49:18 58° NE 20:49:33 57° ENE
Cosmos 540 Rocket 3.7 20:44:43 10° NNW 20:49:35 58° NE 20:49:35 58° NE
Nadezhda 3 Rocket 4.0 20:52:27 63° E 20:52:32 63° E 20:58:45 10° NNE
ATLAS 2AS CENTAUR R/B 4.2 20:47:55 10° WNW 20:53:48 26° WSW 20:56:14 21° SW
Cosmos 1140 Rocket 4.5 20:51:22 17° WSW 20:55:02 44° WNW 21:00:00 10° NNE
Iridium 4 Rocket 4.3 20:52:45 10° NNW 20:56:40 34° W 20:56:43 34° W
Cosmos 1570 Rocket 4.0 20:52:19 10° NNW 20:57:27 81° N 20:57:27 81° N
Cosmos 1812 Rocket 4.5 21:00:32 44° WNW 21:00:32 44° WNW 21:04:29 10° N
Meteor 2-3 Rocket 4.0 20:54:41 10° N 21:00:13 57° ENE 21:00:13 57° ENE
RESURS DK-1 3.6 20:56:52 10° NNW 20:59:42 41° NNW 20:59:42 41° NNW
Cosmos 841 Rocket 3.6 20:56:46 10° NNW 21:01:39 73° N 21:01:39 73° N
BREEZE M DEB (TANK) 4.0 21:02:08 52° SSW 21:03:34 65° SSE 21:20:53 10° E
Cosmos 1697 Rocket 2.7 21:01:26 10° NNW 21:06:58 74° NE 21:06:58 74° NE
Terra 2.7 21:07:36 43° W 21:07:36 43° W 21:11:53 10° NNW
Mayak 0.3 21:11:07 10° NNE 21:13:23 31° NNE 21:13:23 31° NNE
CZ-4C R/B 3.0 21:08:54 10° NW 21:15:40 64° NE 21:17:32 50° E
SL-16 R/B 3.8 21:12:33 10° NNW 21:17:17 26° NE 21:18:42 24° ENE
Meteor 2-10 Rocket 3.8 21:20:35 67° NNW 21:20:35 67° NNW 21:25:19 10° N
Cosmos 2239 Rocket 4.4 21:15:33 10° NNW 21:21:47 76° W 21:21:59 75° WSW
Cosmos 1821 Rocket 4.1 21:17:10 10° NNW 21:23:28 67° W 21:23:55 65° WSW
Cosmos 2344 4.3 21:14:54 10° NW 21:23:54 76° NE 21:28:52 40° ESE
Cosmos 2360 Rocket 4.4 21:22:11 10° NNW 21:26:05 19° NNE 21:29:00 13° ENE
Thor Agena Rocket 4.1 21:21:16 10° NNE 21:25:02 51° NNE 21:25:02 51° NNE
Cosmos 2322 Rocket 3.8 21:23:57 10° NNW 21:28:41 26° NE 21:30:00 24° ENE
ASTEX 1 4.1 21:33:47 51° NW 21:33:47 51° NW 21:37:51 10° NNW
Cosmos 1980 Rocket 2.4 21:28:51 10° NNW 21:33:52 64° NNE 21:33:52 64° NNE
Cosmos 1455 4.5 21:37:01 24° NNW 21:37:01 24° NNW 21:38:52 10° N
Cosmos 1934 Rocket 3.9 21:29:27 10° NNW 21:35:38 82° WNW 21:35:38 82° WNW
Cosmos 1741 Rocket 4.5 21:39:05 59° NNW 21:39:05 59° NNW 21:43:47 10° NNE
Cosmos 2360 4.4 21:35:22 10° NNW 21:40:17 67° NW 21:40:17 67° NW
Cosmos 1605 Rocket 4.0 21:36:11 10° N 21:41:55 73° NE 21:41:55 73° NE
ATLAS CENTAUR R/B 3.6 21:40:52 10° NW 21:42:19 21° NW 21:42:19 21° NW
Cosmos 2278 4.1 21:47:38 10° NNW 21:52:13 58° NW 21:52:13 58° NW
Cosmos 2082 Rocket 3.3 22:02:46 35° NE 22:02:46 35° NE 22:06:07 10° NE
ATLAS 5 CENTAUR R/B 3.2 22:02:17 34° NW 22:02:49 35° NNW 22:07:31 10° NE
Cosmos 2221 4.4 22:08:57 29° N 22:08:57 29° N 22:11:07 10° N
ALOS 2 4.3 22:09:35 32° NNW 22:09:35 32° NNW 22:11:59 10° NNW
COSMOS 2406 3.6 22:09:22 59° NNW 22:09:22 59° NNW 22:14:32 10° NNE
Cosmos 1833 Rocket 3.2 22:21:36 55° NNE 22:21:36 55° NNE 22:26:02 10° NNE
Cosmos 2219 Rocket 4.5 22:23:22 10° NNW 22:27:22 19° NNE 22:31:20 10° ENE
SL-16 R/B 4.3 22:27:03 18° E 22:29:30 23° NE 22:34:15 10° N
USA 234 3.7 22:24:29 10° ENE 22:30:54 59° N 22:37:18 10° W
Mayak 1.4 22:48:06 10° NNW 22:49:57 14° NW 22:49:57 14° NW
Cosmos 1727 Rocket 4.2 22:59:22 63° NW 22:59:22 63° NW 23:05:10 10° N
Cosmos 1459 Rocket 4.2 22:55:41 10° NNW 23:01:18 67° NW 23:01:18 67° NW
SL-16 R/B 2.9 22:56:24 10° NNW 23:00:33 50° NW 23:00:33 50° NW
Cosmos 1802 Rocket 4.1 22:57:17 10° N 23:02:46 70° NNW 23:02:46 70° NNW
CZ-4C R/B 3.5 22:57:31 10° NW 23:02:42 42° W 23:02:42 42° W
Cosmos 968 Rocket 4.4 23:07:37 47° NNE 23:07:37 47° NNE 23:11:21 10° NNE
Cosmos 2233 Rocket 4.5 23:01:09 10° N 23:07:18 51° ENE 23:07:22 51° ENE
Cosmos 1725 Rocket 4.1 23:03:24 10° N 23:09:17 72° NE 23:09:17 72° NE
Cosmos 2360 Rocket 2.7 23:05:45 10° NNW 23:10:45 55° NNE 23:10:45 55° NNE
Cosmos 2333 Rocket 3.7 23:07:40 10° NNW 23:12:42 31° NE 23:15:07 23° E
Cosmos 1607 4.2 23:13:57 64° NE 23:13:57 64° NE 23:19:11 10° NE
Cosmos 2016 Rocket 4.1 23:06:40 10° N 23:12:25 74° NNW 23:12:25 74° NNW
Cosmos 2322 Rocket 2.9 23:07:45 10° NNW 23:11:48 48° NW 23:11:48 48° NW
Cosmos 2100 Rocket 4.4 23:07:44 10° NNW 23:12:54 53° WNW 23:12:54 53° WNW
Cosmos 1980 Rocket 4.1 23:13:32 10° NW 23:15:38 19° WNW 23:15:38 19° WNW
Cosmos 2123 Rocket 4.1 23:22:26 67° ENE 23:22:26 67° ENE 23:28:02 10° NNE
Resurs 1-4 Rocket 3.6 23:31:52 10° NE 23:36:00 28° E 23:36:00 28° E
Cosmos 2082 Rocket 3.3 23:44:34 35° NW 23:44:57 36° NW 23:50:11 10° NNE
CZ-2D R/B 3.3 23:43:49 10° NNE 23:48:41 35° E 23:48:41 35° E
ATLAS 5 CENTAUR R/B 4.1 23:44:55 10° NW 23:48:50 23° N 23:53:15 10° NE
